Lawrenceville, GA

4:11 AM EST on December 09, 2019 (GMT -0500)
Gwinnett County-Briscoe

Weather History for KLZU - November, 2019

Change the Weather History Date:

Tuesday, November 12, 2019

  Actual Average (WUND) Record (WUND)
Temperature  
Mean Temperature 41 °F -  
Max Temperature 55 °F - - (-1)
Min Temperature 26 °F - - (-1)
Degree Days  
Heating Degree Days 24    
Moisture  
Dew Point 43 °F    
Average Humidity 92    
Maximum Humidity 100    
Minimum Humidity 64    
Precipitation  
Precipitation 0.35 in - - ()
Sea Level Pressure  
Sea Level Pressure 30.03 in    
Wind  
Wind Speed 6 mph ()    
Max Wind Speed 13 mph    
Max Gust Speed 24 mph    
Visibility 8.8 miles    
Events Rain    
Averages and records for this station are not official NWS values.
T = Trace of Precipitation, MM = Missing Value Source: Averaged Metar Reports

Daily Weather History Graph

Daily Weather History Graph

Search for Another Location

Airport or City:

Astronomy

Nov. 12, 2019 Rise Set
Actual Time 7:05 AM EST 5:34 PM EST
Civil Twilight 6:38 AM EST 6:00 PM EST
Nautical Twilight 6:08 AM EST 6:30 PM EST
Astronomical Twilight 5:39 AM EST 7:00 PM EST
Moon 5:59 PM EST (11/12) 6:58 AM EST (11/12)
Length of Visible Light 11h 21m
Length of Day
10h 29m
Full, 100% of the Moon is Illuminated
Nov 12
Full
Nov 19
Last Quarter
Nov 26
New
Dec 4
First Quarter
Dec 12
Full

Hourly Weather History & Observations

Time (EST) Temp. Windchill Dew Point Humidity Pressure Visibility Wind Dir Wind Speed Gust Speed Precip Events Conditions
12:56 AM 55.0 °F - 55.0 °F 100% 30.02 in 8.0 mi WSW 6.9 mph - 0.03 in Rain Light Rain
1:31 AM 55.4 °F - 55.4 °F 100% 29.98 in 3.0 mi SW 8.1 mph - 0.03 in Rain Rain
1:56 AM 55.0 °F - 55.0 °F 100% 29.99 in 4.0 mi SW 6.9 mph - 0.06 in Rain Light Rain
2:56 AM 55.9 °F - 55.9 °F 100% 29.94 in 10.0 mi WSW 4.6 mph - 0.00 in Rain Light Rain
3:25 AM 55.4 °F - 55.4 °F 100% 29.90 in 10.0 mi SW 4.6 mph - 0.00 in Rain Light Rain
3:56 AM 55.0 °F - 55.0 °F 100% 29.89 in 10.0 mi Calm Calm - 0.01 in   Overcast
4:17 AM 55.4 °F - 55.4 °F 100% 29.87 in 8.0 mi Calm Calm - N/A   Overcast
4:25 AM 55.4 °F - 55.4 °F 100% 29.87 in 9.0 mi Calm Calm - N/A   Overcast
4:44 AM 55.4 °F - 55.4 °F 100% 29.88 in 10.0 mi West 4.6 mph - 0.00 in Rain Light Rain
4:56 AM 55.0 °F - 55.0 °F 100% 29.92 in 6.0 mi West 5.8 mph - 0.00 in Rain Rain
5:14 AM 55.4 °F - 55.4 °F 100% 29.90 in 5.0 mi West 10.4 mph - 0.04 in Rain Light Rain
5:30 AM 53.6 °F - 53.6 °F 100% 29.91 in 10.0 mi West 9.2 mph 19.6 mph 0.05 in Rain Light Rain
5:38 AM 51.8 °F - 50.0 °F 94% 29.92 in 10.0 mi WNW 11.5 mph 20.7 mph 0.06 in Rain Rain
5:56 AM 48.9 °F - 48.9 °F 100% 29.96 in 10.0 mi West 8.1 mph - 0.07 in Rain Light Rain
6:08 AM 48.2 °F - 48.2 °F 100% 29.93 in 10.0 mi West 8.1 mph - 0.01 in Rain Light Rain
6:56 AM 45.0 °F 41.2 °F 45.0 °F 100% 29.97 in 5.0 mi Variable 6.9 mph - 0.08 in Rain Light Rain
7:56 AM 42.1 °F 37.1 °F 42.1 °F 100% 30.00 in 10.0 mi West 8.1 mph - 0.08 in Rain Light Rain
8:56 AM 41.0 °F 36.4 °F 39.9 °F 96% 30.04 in 5.0 mi Variable 6.9 mph - 0.02 in Rain Light Rain
9:49 AM 39.2 °F 32.5 °F 37.4 °F 93% 30.02 in 5.0 mi WNW 10.4 mph 20.7 mph 0.00 in   Mostly Cloudy
9:56 AM 39.0 °F 32.8 °F 37.0 °F 93% 30.06 in 10.0 mi West 9.2 mph 20.7 mph 0.00 in   Mostly Cloudy
10:28 AM 39.2 °F 33.6 °F 37.4 °F 93% 30.03 in 10.0 mi WNW 8.1 mph 16.1 mph N/A   Mostly Cloudy
10:56 AM - - - N/A% - 10.0 mi WNW 9.2 mph 17.3 mph N/A   Scattered Clouds
11:56 AM - - - N/A% 30.05 in 10.0 mi WNW 12.7 mph 19.6 mph N/A   Scattered Clouds
12:56 PM - - - N/A% 30.05 in 10.0 mi West 11.5 mph 19.6 mph N/A   Clear
1:56 PM - - - N/A% 30.05 in 10.0 mi West 11.5 mph 17.3 mph N/A   Partly Cloudy
2:56 PM - - - N/A% - 10.0 mi WNW 11.5 mph 24.2 mph N/A   Clear
3:56 PM - - - N/A% 30.08 in 10.0 mi WNW 8.1 mph 17.3 mph N/A   Clear
4:56 PM - - - N/A% 30.11 in 10.0 mi Variable 6.9 mph - N/A   Clear
5:56 PM 33.1 °F 24.9 °F 21.9 °F 64% 30.18 in 10.0 mi WNW 10.4 mph 20.7 mph N/A   Clear
6:56 PM 30.0 °F 23.2 °F 21.9 °F 72% 30.21 in 10.0 mi Variable 6.9 mph - N/A   Clear
7:56 PM 28.9 °F 21.9 °F 21.9 °F 75% 30.23 in 10.0 mi Variable 6.9 mph - N/A   Clear
8:56 PM 28.0 °F 24.2 °F 21.0 °F 75% 30.26 in 10.0 mi Variable 3.5 mph - N/A   Clear
9:56 PM 28.0 °F 22.8 °F 21.0 °F 75% 30.28 in 10.0 mi Variable 4.6 mph - N/A   Clear
10:56 PM 27.0 °F 23.0 °F 19.9 °F 75% 30.23 in 10.0 mi Variable 3.5 mph - N/A   Clear
11:56 PM 26.1 °F 21.9 °F 19.0 °F 75% 30.24 in 10.0 mi Variable 3.5 mph - N/A   Clear